When you browse on this site, cookies collect data to enhance your experience and personalize the content and advertising you see.
Visit our Privacy Policy to learn more. By continuing to use the site, you agree to this use of cookies and data.
  • In Norway
  • List of Countries
  • For 7 days
  • Water Temperature
  • Satellite Maps
  • Weather Map
  • Weather Widgets
  • user-avatar
    Login

    Hourly Weather Korczowa

    Today, 11 December, Tuesday

    Time Temperature Precipitation Wind Pressure Humidity
    00:00 -2°C° 0 mm 4 mps 737 mmHg 89%
    01:00 -2°C° 0 mm 4 mps 737 mmHg 89%
    02:00 -2°C° 0 mm 4 mps 737 mmHg 90%
    03:00 -2°C° 0.1 mm 4 mps 737 mmHg 89%
    04:00 0°C° 0.1 mm 3 mps 738 mmHg 89%
    05:00 0°C° 0.1 mm 3 mps 738 mmHg 88%
    06:00 -1°C° 0 mm 3 mps 738 mmHg 88%
    07:00 -1°C° 0 mm 3 mps 738 mmHg 88%
    08:00 -1°C° 0 mm 2 mps 738 mmHg 88%
    09:00 +1°C° 0 mm 2 mps 738 mmHg 84%
    10:00 +1°C° 0 mm 2 mps 738 mmHg 79%
    11:00 +2°C° 0 mm 2 mps 739 mmHg 75%
    12:00 +2°C° 0 mm 2 mps 739 mmHg 72%
    13:00 +3°C° 0 mm 2 mps 739 mmHg 70%
    14:00 +3°C° 0 mm 2 mps 738 mmHg 67%
    15:00 +2°C° 0 mm 2 mps 739 mmHg 72%
    16:00 +1°C° 0 mm 2 mps 739 mmHg 76%
    17:00 -1°C° 0 mm 2 mps 739 mmHg 81%
    18:00 -1°C° 0 mm 2 mps 739 mmHg 82%
    19:00 -1°C° 0 mm 2 mps 739 mmHg 83%
    20:00 -1°C° 0 mm 2 mps 739 mmHg 83%
    21:00 -1°C° 0 mm 2 mps 739 mmHg 84%
    22:00 -1°C° 0 mm 2 mps 740 mmHg 85%
    23:00 -2°C° 0 mm 2 mps 740 mmHg 86%

    Tomorrow, 12 December, Wednesday

    Time Temperature Precipitation Wind Pressure Humidity
    00:00 -2°C° 0 mm 2 mps 740 mmHg 86%
    01:00 -2°C° 0 mm 2 mps 740 mmHg 86%
    02:00 0°C° 0 mm 1 mps 740 mmHg 86%
    03:00 0°C° 0 mm 1 mps 740 mmHg 86%
    04:00 0°C° 0 mm 1 mps 740 mmHg 86%
    05:00 0°C° 0 mm 1 mps 740 mmHg 86%
    06:00 0°C° 0 mm 1 mps 741 mmHg 87%
    07:00 0°C° 0 mm 1 mps 741 mmHg 87%
    08:00 0°C° 0 mm 1 mps 741 mmHg 88%
    09:00 +1°C° 0 mm 1 mps 742 mmHg 85%
    10:00 +1°C° 0 mm 1 mps 742 mmHg 81%
    11:00 +2°C° 0 mm 1 mps 742 mmHg 78%
    12:00 +1°C° 0 mm 2 mps 742 mmHg 76%
    13:00 +1°C° 0 mm 2 mps 742 mmHg 75%
    14:00 +2°C° 0 mm 2 mps 742 mmHg 73%
    15:00 +1°C° 0 mm 2 mps 743 mmHg 77%
    16:00 -1°C° 0 mm 2 mps 743 mmHg 80%
    17:00 -2°C° 0 mm 2 mps 743 mmHg 84%
    18:00 -2°C° 0 mm 2 mps 743 mmHg 85%
    19:00 -2°C° 0 mm 2 mps 743 mmHg 85%
    20:00 -2°C° 0 mm 3 mps 743 mmHg 86%
    21:00 -2°C° 0.1 mm 3 mps 743 mmHg 87%
    22:00 -2°C° 0.1 mm 3 mps 743 mmHg 88%
    23:00 -3°C° 0.1 mm 4 mps 743 mmHg 89%

    Day after tomorrow, 13 December, Thursday

    Time Temperature Precipitation Wind Pressure Humidity
    00:00 -2°C° 0.2 mm 4 mps 743 mmHg 90%
    01:00 -2°C° 0.2 mm 4 mps 743 mmHg 90%
    02:00 -2°C° 0.2 mm 4 mps 743 mmHg 91%
    03:00 -2°C° 0.4 mm 4 mps 743 mmHg 91%
    04:00 -2°C° 0.4 mm 5 mps 743 mmHg 91%
    05:00 -2°C° 0.4 mm 5 mps 743 mmHg 91%
    06:00 -2°C° 0.5 mm 5 mps 743 mmHg 91%
    07:00 -2°C° 0.5 mm 5 mps 743 mmHg 92%
    08:00 -2°C° 0.5 mm 5 mps 743 mmHg 92%
    09:00 -2°C° 0.5 mm 5 mps 743 mmHg 92%
    10:00 -2°C° 0.5 mm 4 mps 743 mmHg 92%
    11:00 -2°C° 0.5 mm 4 mps 743 mmHg 92%
    12:00 -2°C° 0.3 mm 4 mps 743 mmHg 92%
    13:00 -2°C° 0.3 mm 4 mps 742 mmHg 92%
    14:00 -2°C° 0.3 mm 4 mps 742 mmHg 91%
    15:00 -1°C° 0.3 mm 3 mps 742 mmHg 92%
    16:00 -1°C° 0.3 mm 3 mps 743 mmHg 93%
    17:00 -1°C° 0.3 mm 3 mps 743 mmHg 94%
    18:00 -1°C° 0.3 mm 3 mps 743 mmHg 94%
    19:00 -1°C° 0.3 mm 3 mps 743 mmHg 95%
    20:00 -1°C° 0.3 mm 3 mps 743 mmHg 95%
    21:00 -2°C° 0.2 mm 3 mps 743 mmHg 95%
    22:00 -2°C° 0.2 mm 2 mps 743 mmHg 95%
    23:00 -2°C° 0.2 mm 2 mps 744 mmHg 95%

    14 December, Friday

    Time Temperature Precipitation Wind Pressure Humidity
    00:00 -2°C° 0.1 mm 2 mps 744 mmHg 96%
    01:00 -2°C° 0.1 mm 2 mps 744 mmHg 96%
    02:00 -2°C° 0.1 mm 2 mps 744 mmHg 96%
    03:00 -2°C° 0.1 mm 2 mps 744 mmHg 96%
    04:00 -2°C° 0.1 mm 2 mps 744 mmHg 96%
    05:00 -2°C° 0.1 mm 2 mps 744 mmHg 96%
    06:00 -2°C° 0.1 mm 2 mps 745 mmHg 96%
    07:00 -2°C° 0.1 mm 2 mps 745 mmHg 96%
    08:00 -2°C° 0.1 mm 2 mps 745 mmHg 96%
    09:00 -2°C° 0.2 mm 2 mps 745 mmHg 95%
    10:00 -2°C° 0.2 mm 2 mps 746 mmHg 95%
    11:00 -1°C° 0.2 mm 2 mps 746 mmHg 94%
    12:00 -1°C° 0.1 mm 2 mps 746 mmHg 94%
    13:00 -1°C° 0.1 mm 2 mps 746 mmHg 93%
    14:00 -1°C° 0.1 mm 2 mps 746 mmHg 93%
    15:00 +1°C° 0 mm 1 mps 747 mmHg 94%
    16:00 +1°C° 0 mm 1 mps 747 mmHg 94%
    17:00 0°C° 0 mm 1 mps 747 mmHg 95%
    18:00 0°C° 0.1 mm 1 mps 748 mmHg 95%
    19:00 0°C° 0.1 mm 1 mps 748 mmHg 95%
    20:00 0°C° 0.1 mm 1 mps 748 mmHg 95%
    21:00 -1°C° 0 mm 1 mps 749 mmHg 94%
    22:00 -1°C° 0 mm 1 mps 749 mmHg 94%
    23:00 -2°C° 0 mm 1 mps 749 mmHg 94%

    15 December, Saturday

    Time Temperature Precipitation Wind Pressure Humidity
    00:00 -2°C° 0 mm 1 mps 749 mmHg 94%
    01:00 -3°C° 0 mm 0 mps 749 mmHg 93%
    02:00 -4°C° 0 mm 0 mps 750 mmHg 93%
    03:00 -4°C° 0 mm 0 mps 750 mmHg 93%
    04:00 -4°C° 0 mm 0 mps 750 mmHg 93%
    05:00 -4°C° 0 mm 1 mps 750 mmHg 93%
    06:00 -4°C° 0 mm 1 mps 750 mmHg 93%
    07:00 -4°C° 0 mm 1 mps 750 mmHg 93%
    08:00 -4°C° 0 mm 1 mps 751 mmHg 94%
    09:00 -3°C° 0 mm 1 mps 751 mmHg 92%
    10:00 -2°C° 0 mm 1 mps 751 mmHg 90%
    11:00 -1°C° 0 mm 1 mps 752 mmHg 89%
    12:00 -1°C° 0 mm 1 mps 751 mmHg 87%
    13:00 -1°C° 0 mm 1 mps 751 mmHg 86%
    14:00 0°C° 0 mm 1 mps 751 mmHg 85%
    15:00 -1°C° 0 mm 1 mps 751 mmHg 87%
    16:00 -1°C° 0 mm 1 mps 752 mmHg 89%
    17:00 -2°C° 0 mm 1 mps 752 mmHg 92%
    18:00 -2°C° 0 mm 1 mps 752 mmHg 92%
    19:00 -2°C° 0 mm 1 mps 752 mmHg 93%
    20:00 -2°C° 0 mm 1 mps 752 mmHg 93%
    21:00 -2°C° 0 mm 1 mps 752 mmHg 93%
    22:00 -3°C° 0 mm 0 mps 752 mmHg 93%
    23:00 -4°C° 0 mm 0 mps 752 mmHg 93%

    16 December, Sunday

    Time Temperature Precipitation Wind Pressure Humidity
    00:00 -4°C° 0 mm 0 mps 752 mmHg 94%
    01:00 -4°C° 0 mm 0 mps 752 mmHg 94%
    02:00 -3°C° 0 mm 1 mps 752 mmHg 94%
    03:00 -3°C° 0 mm 1 mps 752 mmHg 94%
    04:00 -3°C° 0 mm 1 mps 751 mmHg 94%
    05:00 -3°C° 0 mm 1 mps 751 mmHg 95%
    06:00 -3°C° 0 mm 1 mps 751 mmHg 95%
    07:00 -3°C° 0 mm 1 mps 752 mmHg 95%
    08:00 -3°C° 0 mm 1 mps 752 mmHg 95%
    09:00 -2°C° 0 mm 1 mps 752 mmHg 93%
    10:00 -2°C° 0 mm 1 mps 752 mmHg 92%
    11:00 -1°C° 0 mm 1 mps 752 mmHg 91%
    12:00 -1°C° 0 mm 1 mps 751 mmHg 89%
    13:00 -1°C° 0 mm 1 mps 751 mmHg 88%
    14:00 -1°C° 0 mm 1 mps 751 mmHg 87%
    15:00 -1°C° 0 mm 1 mps 751 mmHg 87%
    16:00 -1°C° 0 mm 1 mps 751 mmHg 88%
    17:00 -2°C° 0 mm 1 mps 751 mmHg 89%
    18:00 -4°C° 0 mm 2 mps 751 mmHg 90%
    19:00 -4°C° 0 mm 2 mps 751 mmHg 90%
    20:00 -4°C° 0 mm 2 mps 751 mmHg 91%
    21:00 -5°C° 0 mm 2 mps 751 mmHg 91%
    22:00 -5°C° 0 mm 2 mps 751 mmHg 92%
    23:00 -6°C° 0 mm 2 mps 751 mmHg 92%
    Show more